Location: Cahas Mountain Overlook
(37.0833°N, 80.1000°W)
Time: 05:51:57
(UTC-05:00)

Altair - Visible Passes

Search period start: 19 January 2022 00:00
Search period end: 29 January 2022 00:00
Orbit: 1501 x 1683 km, 47.2° (Epoch: 18 January)

Date Brightness Start Highest point End Pass type
(mag) Time Alt. Az. Time Alt. Az. Time Alt. Az.
19 Jan 8.5 03:22:08 41° NE 03:22:08 41° NE 03:27:58 10° ENE visible
19 Jan 7.9 05:20:09 38° WNW 05:23:34 50° N 05:33:21 10° ENE visible
20 Jan 8.9 02:58:22 30° ENE 02:58:22 30° ENE 03:02:43 10° ENE visible
20 Jan 7.8 04:56:23 47° NW 04:58:13 52° NNW 05:08:04 10° ENE visible
20 Jan 8.1 06:54:58 10° WNW 07:04:51 52° NNE 07:14:35 10° E visible
21 Jan 9.3 02:34:34 22° ENE 02:34:34 22° ENE 02:37:29 10° ENE visible
21 Jan 7.8 04:32:35 53° NNW 04:32:52 53° NNW 04:42:46 10° ENE visible
21 Jan 8.1 06:30:37 13° WNW 06:39:31 51° N 06:49:14 10° E visible
22 Jan 9.6 02:10:45 16° ENE 02:10:45 16° ENE 02:12:13 10° ENE visible
22 Jan 8.0 04:08:46 52° N 04:08:46 52° N 04:17:29 10° ENE visible
22 Jan 8.1 06:06:47 19° WNW 06:14:10 50° N 06:23:52 10° E visible
23 Jan 9.8 01:46:54 10° ENE 01:46:54 10° ENE 01:46:58 10° ENE visible
23 Jan 8.2 03:44:55 46° NNE 03:44:55 46° NNE 03:52:12 10° ENE visible
23 Jan 8.1 05:42:56 25° NW 05:48:49 49° N 05:58:31 10° E visible
24 Jan 8.6 03:21:04 38° NE 03:21:04 38° NE 03:26:56 10° ENE visible
24 Jan 8.1 05:19:04 32° NW 05:23:27 48° N 05:33:10 10° ENE visible
25 Jan 8.9 02:57:12 30° NE 02:57:12 30° NE 03:01:39 10° ENE visible
25 Jan 8.1 04:55:12 39° NW 04:58:06 48° N 05:07:49 10° ENE visible
25 Jan 7.9 06:54:06 10° WNW 07:04:20 73° NNE 07:14:20 10° ESE visible
26 Jan 9.2 02:33:19 23° NE 02:33:19 23° NE 02:36:23 10° ENE visible
26 Jan 8.0 04:31:20 45° NNW 04:32:44 47° N 04:42:27 10° ENE visible
26 Jan 7.9 06:29:21 12° WNW 06:39:03 69° NNE 06:49:04 10° ESE visible
27 Jan 9.5 02:09:27 16° NE 02:09:27 16° NE 02:11:08 10° ENE visible
27 Jan 8.1 04:07:28 47° N 04:07:28 47° N 04:17:06 10° ENE visible
27 Jan 7.9 06:05:29 17° NW 06:13:46 66° NNE 06:23:46 10° ESE visible
28 Jan 9.8 01:45:36 11° ENE 01:45:36 11° ENE 01:45:52 10° ENE visible
28 Jan 8.3 03:43:37 44° NNE 03:43:37 44° NNE 03:51:44 10° ENE visible
28 Jan 7.9 05:41:37 24° NW 05:48:28 63° NNE 05:58:28 10° ESE visible
